Location: Omaha
(41.2590°N, 95.9380°W)
Time: 19:05:37
(UTC-05:00)

Vanguard 1 - Visible Passes

Search period start: 18 October 2017 00:00
Search period end: 28 October 2017 00:00
Orbit: 650 x 3834 km, 34.3° (Epoch: 18 October)

Date Brightness Start Highest point End Pass type
(mag) Time Alt. Az. Time Alt. Az. Time Alt. Az.
18 Oct 13.1 02:03:32 41° ESE 02:03:32 41° ESE 02:17:33 10° E visible
18 Oct 12.5 04:16:14 59° SW 04:21:17 71° S 04:44:51 10° E visible
18 Oct 13.1 06:28:57 16° W 06:47:53 62° SSW 07:09:11 10° SE visible
19 Oct 12.9 02:23:18 48° ESE 02:23:18 48° ESE 02:39:20 10° E visible
19 Oct 12.5 04:36:00 52° WSW 04:42:49 71° S 05:06:19 10° ESE visible
19 Oct 13.2 06:48:43 11° W 07:09:11 57° SSW 07:29:54 10° SE visible
20 Oct 13.9 00:30:23 13° E 00:30:23 13° E 00:32:24 10° E visible
20 Oct 12.7 02:43:05 56° ESE 02:43:05 56° ESE 03:01:05 10° E visible
20 Oct 12.6 04:55:48 45° WSW 05:04:21 69° S 05:27:41 10° ESE visible
20 Oct 13.3 07:09:39 10° W 07:30:19 50° SSW 07:50:23 10° SE visible
21 Oct 13.7 00:50:12 18° E 00:50:12 18° E 00:54:28 10° E visible
21 Oct 12.6 03:02:54 63° SE 03:02:54 63° SE 03:22:47 10° E visible
21 Oct 12.7 05:15:37 38° WSW 05:25:51 66° SSW 05:48:54 10° ESE visible
22 Oct 13.6 01:10:02 23° E 01:10:02 23° E 01:16:23 10° E visible
22 Oct 12.4 03:22:45 68° SSE 03:22:45 68° SSE 03:44:26 10° E visible
22 Oct 12.8 05:35:28 32° W 05:47:16 61° SSW 06:09:55 10° SE visible
23 Oct 13.4 01:29:55 28° E 01:29:55 28° E 01:38:13 10° E visible
23 Oct 12.4 03:42:38 70° S 03:42:46 70° S 04:06:00 10° ESE visible
23 Oct 13.0 05:55:21 26° W 06:08:36 56° SSW 06:30:42 10° SE visible
24 Oct 13.2 01:49:50 33° E 01:49:50 33° E 02:00:00 10° E visible
24 Oct 12.3 04:02:33 66° SSW 04:04:13 68° S 04:27:27 10° ESE visible
24 Oct 13.1 06:15:16 21° W 06:29:49 49° SSW 06:51:11 10° SE visible
25 Oct 13.1 02:09:47 38° ESE 02:09:47 38° ESE 02:21:45 10° E visible
25 Oct 12.4 04:22:30 60° SW 04:25:39 64° SSW 04:48:45 10° ESE visible
25 Oct 13.2 06:35:14 16° W 06:50:56 42° SW 07:11:20 10° SSE visible
26 Oct 12.9 02:29:46 44° ESE 02:29:46 44° ESE 02:43:26 10° E visible
26 Oct 12.5 04:42:30 52° WSW 04:47:02 59° SSW 05:09:49 10° SE visible
26 Oct 13.4 06:55:14 11° W 07:11:55 35° SW 07:31:01 10° SSE visible
27 Oct 14.0 00:37:04 10° E 00:37:04 10° E 00:37:05 10° E visible
27 Oct 12.8 02:49:48 49° ESE 02:49:48 49° ESE 03:05:04 10° ESE visible
27 Oct 12.6 05:02:32 44° WSW 05:08:22 54° SSW 05:30:38 10° SE visible
27 Oct 13.5 07:16:49 10° W 07:32:49 28° SW 07:50:07 10° S visible
